Home   Weather   Jaipur   Past weeks

Flag for India Past Weather in Jaipur, Rajasthan, India — Yesterday and Last 2 Weeks

Now
72 °F

Haze.


Feels Like: 77 °F
Forecast: 56 / 80 °F
Wind: 6 mph from Southeast

Location: Jaipur / Sanganer

Current Time: Jan 23, 2017 at 12:14:05 pm

Latest Report: Jan 23, 2017 at 11:30 am


Visibility: 2 mi

Pressure: 30.21 "Hg

Humidity: 41%

Dew Point: 46 °F

Location of JaipurLocation

Past Weather in Jaipur — Graph

°F

Jaipur Temperature Yesterday

Maximum temperature yesterday: 75 °F (at 3:00 pm)
Minimum temperature yesterday: 57 °F (at 12:00 am)
Average temperature yesterday: 64 °F

High & Low Weather Summary for the Past Weeks

 TemperatureHumidityPressure
High75 °F (Jan 22, 3:00 pm)100% (Jan 9, 7:00 am)30.30 "Hg (Jan 9, 7:00 am)
Low39 °F (Jan 12, 5:30 am)15% (Jan 13, 5:00 pm)29.86 "Hg (Jan 19, 6:00 am)
Average58 °F48%30.09 "Hg
* Reported Jan 8 10:30 am — Jan 23 10:30 am, Jaipur, Weather by CustomWeather, © 2017

Note: Actual official high and low records may vary slightly from our data, if they occured in-between our weather recording intervals... More about our weather records

Advertising

Jaipur Weather History for the Previous 24 Hours

Scroll right to see more
 ConditionsComfort  
Time TempWeatherWind HumidityBarometerVisibility
10:30 am
Mon, Jan 23
70 °FHaze.7 mph43%30.21 "Hg2 mi
9:00 am63 °FClear.5 mph59%30.21 "Hg1 mi
8:30 am57 °FClear.5 mph77%30.21 "Hg1 mi
8:00 am55 °FHaze.5 mph77%30.18 "Hg1 mi
7:30 am54 °FHaze.No wind77%30.18 "Hg1 mi
7:00 am52 °FHaze.2 mph77%30.15 "Hg1 mi
6:30 am57 °FHaze.No wind72%30.15 "Hg1 mi
6:00 am55 °FHaze.No wind72%30.15 "Hg1 mi
5:30 am54 °FHaze.No wind77%30.12 "Hg1 mi
5:00 am55 °FHaze.No wind72%30.12 "Hg1 mi
4:30 am54 °FHaze.No wind77%30.12 "Hg1 mi
3:30 am55 °FHaze.No wind72%30.12 "Hg2 mi
2:30 am57 °FHaze.No wind67%30.15 "Hg2 mi
2:00 am57 °FHaze.No wind63%30.15 "Hg2 mi
1:30 am59 °FHaze.No wind59%30.15 "Hg1 mi
1:00 am59 °FHaze.No wind63%30.15 "Hg1 mi
11:30 pm
Sun, Jan 22
64 °FHaze.3 mph52%30.18 "Hg1 mi
11:00 pm64 °FHaze.3 mph52%30.18 "Hg1 mi
10:30 pm63 °FHaze.1 mph56%30.18 "Hg1 mi
10:00 pm63 °FHaze.2 mph59%30.18 "Hg2 mi
9:30 pm63 °FHaze.5 mph56%30.18 "Hg2 mi
9:00 pm63 °FHaze.5 mph56%30.15 "Hg2 mi
8:30 pm63 °FHaze.3 mph56%30.15 "Hg2 mi
8:00 pm64 °FHaze.6 mph49%30.15 "Hg2 mi
7:30 pm66 °FHaze.6 mph49%30.12 "Hg2 mi
6:30 pm68 °FHaze.5 mph43%30.12 "Hg2 mi
5:30 pm72 °FHaze.7 mph38%30.12 "Hg2 mi
4:00 pm75 °FHaze.7 mph34%30.12 "Hg2 mi
3:30 pm75 °FHaze.7 mph34%30.12 "Hg3 mi
3:00 pm75 °FHaze.7 mph31%30.12 "Hg3 mi
2:30 pm73 °FHaze.7 mph31%30.15 "Hg3 mi
1:30 pm73 °FHaze.9 mph31%30.18 "Hg3 mi
1:00 pm73 °FHaze.8 mph27%30.18 "Hg3 mi
Weather by CustomWeather, © 2017

See weather overviewHow to use our weather pages